Hourly Data Report for May 28, 2021

WIARTON A
ONTARIO
Current Station Operator: NAVCAN

44°44'39.000" N
81°06'31.000" W
221.90 m
6119499
71633
YVV

Download Data

Hourly Data (May 2021)
Hourly Data Report for May 28, 2021
TIME
LST
Temp Definition
°C
Dew Point Definition
°C
Rel Hum Definition
%
Precip. Amount Definition
mm

Wind Dir Definition
10's deg

Wind Spd Definition
km/h
Visibility Definition
km
Stn Press Definition
kPa
Hmdx Definition


Wind Chill Definition


Weather Definition


00:00 6.8 0.4 64   5 14 24.1 99.62     LegendNANA
01:00 6.1 2.6 78   7 7 24.1 99.53     Cloudy
02:00 6.7 2.1 72   4 15 24.1 99.50     LegendNANA
03:00 6.4 0.3 65   7 25 24.1 99.57     LegendNANA
04:00 5.6 -0.4 65   9 19 16.1 99.52     Rain
05:00 4.2 1.7 84   9 13 12.9 99.61     Rain
06:00 4.2 2.0 86   10 13 19.3 99.59     LegendNANA
07:00 4.4 2.3 86   7 13 24.1 99.60     Cloudy
08:00 5.2 2.1 80   7 18 24.1 99.58     LegendNANA
09:00 5.4 0.8 72   7 23 24.1 99.57     LegendNANA
10:00 5.6 1.0 72   5 23 24.1 99.56     Cloudy
11:00 6.3 -1.3 58   7 30 24.1 99.56     LegendNANA
12:00 7.0 0.1 61   5 22 24.1 99.51     LegendNANA
13:00 6.7 -3.2 49   3 23 24.1 99.46     Cloudy
14:00 7.0 -3.7 46   4 27 24.1 99.40     LegendNANA
15:00 8.2 -2.5 47   4 17 24.1 99.36     LegendNANA
16:00 9.8 -2.4 42   4 21 24.1 99.31     Mainly Clear
17:00 9.8 -3.7 38   4 23 24.1 99.30     LegendNANA
18:00 9.8 -1.8 44   4 16 24.1 99.26     LegendNANA
19:00 8.6 -1.9 48   4 16 24.1 99.27     Mainly Clear
20:00 7.4 -1.2 54   4 12 24.1 99.32     LegendNANA
21:00 6.8 -1.2 56   6 15 24.1 99.36     LegendNANA
22:00 6.3 -1.4 58   7 13 24.1 99.37     Clear
23:00 3.5 0.3 79   11 8 24.1 99.39     LegendNANA

Notes on Data Quality.

Legend

  • E = Estimated
  • M = Missing
  • NA = Not Available*
  • [empty] = Indicates an unobserved value
Date modified: